Back to catalog

OPS 4682 DEB

AlivePO
NORAD 38454·DEBRIS·🇺🇸 United States

Launched Apr 3, 1965 from Vandenberg Space Force Base

Loading…

Next Passes (next 24 hours)

TLE

FreshSource: Space-Track

Epoch: Sep 12, 2026, 18:40 UTC

1 38454U 65027FK  26255.77779690  .00000345  00000-0  11973-2 0  9991
2 38454  90.2496   9.0242 0033073 347.7129  12.3180 12.95349701593948

Track OPS 4682 DEB in real time with AllMySat

Download on the App Store